This is the latest recevied weather packets stored in our database for station/object KC4GS-13. If no packets are shown the sender has not sent any weather packets the latest 10 day(s).
| Time | Temp. | Humidity | Pressure | Rain* | Wind** | Luminosity | Snow |
|---|---|---|---|---|---|---|---|
| 1778105672 | 30.56° C | 46% | 1012.8 hPa | 0 mm | - | 136 W/m² | - |
| 1778105371 | 30.56° C | 47% | 1012.7 hPa | 0 mm | - | 159 W/m² | - |
| 1778105066 | 30.56° C | 47% | 1013 hPa | 0 mm | - | 214 W/m² | - |
| 1778104763 | 30.56° C | 47% | 1013.1 hPa | 0 mm | - | 194 W/m² | - |
| 1778104459 | 30.56° C | 46% | 1013 hPa | 0 mm | - | 249 W/m² | - |
| 1778104155 | 31.11° C | 46% | 1013.1 hPa | 0 mm | - | 195 W/m² | - |
| 1778103852 | 31.11° C | 46% | 1013.4 hPa | 0 mm | - | 231 W/m² | - |
| 1778103549 | 31.11° C | 46% | 1013.2 hPa | 0 mm | - | 294 W/m² | - |
| 1778103247 | 31.11° C | 46% | 1013.4 hPa | 0 mm | - | 331 W/m² | - |
| 1778102944 | 31.11° C | 45% | 1013.2 hPa | 0 mm | - | 296 W/m² | - |
| 1778102640 | 31.11° C | 45% | 1013.1 hPa | 0 mm | - | 216 W/m² | - |
| 1778102334 | 31.67° C | 44% | 1013 hPa | 0 mm | - | 266 W/m² | - |
| 1778102031 | 31.67° C | 44% | 1013.3 hPa | 0 mm | - | 334 W/m² | - |
| 1778101729 | 31.67° C | 44% | 1013.3 hPa | 0 mm | - | 378 W/m² | - |
| 1778101425 | 31.67° C | 43% | 1013.2 hPa | 0 mm | - | 396 W/m² | - |
| 1778101122 | 32.22° C | 44% | 1013.5 hPa | 0 mm | - | 416 W/m² | - |
| 1778100818 | 31.67° C | 44% | 1013.4 hPa | 0 mm | - | 422 W/m² | - |
| 1778100515 | 32.22° C | 43% | 1013.2 hPa | 0 mm | - | 567 W/m² | - |
| 1778100213 | 32.22° C | 42% | 1013.7 hPa | 0 mm | - | 566 W/m² | - |
| 1778099910 | 31.11° C | 43% | 1013.8 hPa | 0 mm | - | 645 W/m² | - |
| 1778099607 | 31.11° C | 44% | 1013.8 hPa | 0 mm | - | 244 W/m² | - |
| 1778099304 | 31.67° C | 44% | 1014 hPa | 0 mm | - | 209 W/m² | - |
| 1778099001 | 32.22° C | 42% | 1014 hPa | 0 mm | - | 248 W/m² | - |
| 1778098697 | 32.22° C | 43% | 1013.9 hPa | 0 mm | - | 317 W/m² | - |
| 1778098395 | 31.67° C | 42% | 1014 hPa | 0 mm | - | 632 W/m² | - |
* Rain latest hour (hover to see other rain measurements)
** Current wind speed in m/s (hover to see current wind gust speed)